Lapse_Rate
6.4 6.2 6.1 6.2 6.2 6.2 6.3 6.3 6.1 5.9 5.7 5.4 5.0 4.8 4.7 4.6 4.5 4.3 4.2 4.2 4.2 4.0 4.0 4.0 4.0 4.0 4.0 3.9 3.7 3.6 3.4 3.5 3.8 4.3 4.4 4.6 4.9 5.0 5.1 5.4 5.7 6.1 6.5
6.7 6.6 6.5 6.3 6.2 6.3 6.4 6.2 6.0 5.8 5.6 5.3 5.0 4.7 4.5 4.4 4.4 4.3 4.2 4.2 4.1 4.1 3.9 3.9 4.0 3.9 3.9 3.8 3.7 3.5 3.6 3.8 4.0 4.4 4.8 5.0 5.2 5.5 5.5 5.8 6.2 6.7 7.3
6.8 6.7 6.6 6.6 6.5 6.6 6.5 6.2 5.8 5.6 5.4 5.2 5.0 4.7 4.5 4.5 4.5 4.4 4.2 4.0 4.0 3.9 4.0 4.1 3.8 3.9 4.0 3.8 3.7 3.7 3.9 4.2 4.4 4.9 5.1 5.3 5.6 5.8 5.9 6.4 6.8 7.3 7.4
6.7 6.7 6.7 6.7 6.7 6.6 6.3 6.0 5.7 5.3 5.1 5.0 4.8 4.6 4.6 4.5 4.5 4.4 4.2 3.9 4.0 4.0 4.1 3.9 3.9 4.0 3.8 3.7 3.8 4.0 4.3 4.7 5.0 5.3 5.6 5.8 6.0 6.2 6.3 6.9 7.1 7.4 7.3
6.8 6.8 6.9 6.7 6.5 6.3 6.0 5.7 5.4 5.1 4.8 4.7 4.5 4.6 4.6 4.5 4.4 4.5 4.3 3.9 4.1 4.1 4.0 3.9 3.9 3.9 3.8 3.9 4.1 4.4 4.8 5.2 5.5 5.8 6.0 6.3 6.5 6.6 6.6 7.1 7.3 7.3 7.4
6.7 6.8 6.7 6.6 6.3 6.1 5.7 5.5 5.1 4.8 4.6 4.5 4.5 4.3 4.3 4.3 4.4 4.5 4.2 3.9 4.1 4.0 4.0 3.9 3.8 3.8 4.1 4.3 4.5 4.8 5.3 5.7 6.0 6.2 6.3 6.5 6.7 6.8 7.1 7.3 7.3 7.5 7.4
6.5 6.5 6.4 6.3 6.2 6.0 5.5 5.1 4.9 4.5 4.0 4.1 4.2 4.0 4.0 4.3 4.4 4.3 3.7 4.0 4.0 3.9 4.1 3.7 3.7 4.1 4.5 4.5 4.8 5.3 5.6 6.0 6.3 6.4 6.5 6.8 7.0 7.0 7.2 7.5 7.7 7.6 7.6
6.3 6.2 6.2 6.1 5.9 5.6 5.2 4.8 4.2 3.7 3.8 4.0 4.0 3.8 3.9 4.3 4.4 4.0 4.0 4.1 3.9 4.2 3.8 3.8 4.3 4.7 4.8 4.8 5.3 5.6 6.0 6.3 6.5 6.4 6.7 6.9 7.0 7.2 7.4 7.5 7.6 7.6 7.6
6.4 6.4 6.2 5.9 5.6 5.0 4.4 4.0 3.5 4.0 4.0 4.0 3.9 3.8 4.1 4.3 4.1 3.9 4.1 4.2 4.2 4.0 4.0 4.3 4.9 5.0 5.0 5.2 5.6 6.0 6.4 6.9 6.7 6.7 6.9 7.0 7.1 7.4 7.5 7.6 7.7 7.6 7.5
6.4 6.2 5.8 5.6 4.5 4.2 4.0 3.6 4.4 4.4 4.2 4.0 3.7 3.9 4.1 4.0 4.2 4.2 4.4 4.6 4.1 4.3 4.6 5.2 5.3 5.4 5.4 5.6 6.0 6.3 6.6 6.8 6.8 6.9 7.0 7.1 7.3 7.5 7.5 7.6 7.7 7.6 7.5
6.2 5.8 5.4 5.0 4.5 4.3 4.4 4.9 4.9 5.0 4.5 4.4 4.0 4.1 3.8 4.3 4.4 4.5 4.3 4.3 4.6 4.8 5.4 5.8 5.6 5.6 5.7 6.0 6.3 6.5 6.7 6.7 6.8 7.0 7.1 7.3 7.5 7.6 7.6 7.7 7.6 7.6 7.5
6.0 5.7 5.5 5.0 5.1 5.1 5.1 5.2 5.2 5.0 4.3 4.1 3.7 4.1 4.3 4.5 4.4 4.4 4.5 4.9 5.2 5.6 6.0 5.9 5.9 5.9 6.1 6.3 6.5 6.6 6.6 6.6 6.8 7.0 7.2 7.4 7.5 7.5 7.6 7.7 7.7 7.6 7.4
5.0 5.0 5.4 5.0 4.8 4.8 4.7 5.0 4.8 4.6 4.2 4.3 4.3 4.3 4.4 4.5 4.6 4.9 5.1 5.3 5.6 5.8 6.0 6.1 6.0 6.2 6.5 6.7 6.6 6.6 6.7 6.8 6.9 7.1 7.3 7.4 7.3 7.5 7.6 7.7 7.6 7.5 7.5
5.1 4.9 4.7 4.4 4.0 4.2 4.4 4.5 4.4 4.3 4.1 3.8 3.9 4.3 4.4 4.8 5.1 5.3 5.6 5.9 5.8 5.9 6.1 6.2 6.5 6.8 6.8 6.7 6.8 6.8 6.9 7.1 7.2 7.3 7.2 7.1 7.3 7.5 7.7 7.6 7.4 7.4 7.5
3.9 4.0 4.3 4.5 4.5 4.4 4.3 4.1 3.9 3.7 3.9 4.2 4.4 4.8 5.2 5.4 5.6 5.7 5.9 6.0 6.1 6.2 6.4 6.7 7.0 7.0 6.9 7.0 6.9 7.0 7.1 7.2 7.1 7.1 7.0 7.2 7.5 7.7 7.5 7.2 7.2 7.2 7.3
4.8 4.7 4.5 4.4 4.3 4.3 4.3 4.3 4.3 4.4 4.5 4.9 5.2 5.4 5.6 5.8 6.0 6.2 6.3 6.3 6.5 6.8 7.0 7.1 7.1 7.0 7.0 6.9 7.0 7.1 7.3 7.2 7.2 7.1 7.1 7.3 7.5 7.4 7.1 6.9 6.8 6.8 7.0
4.6 4.5 4.4 4.4 4.3 4.3 4.3 4.5 4.8 5.2 5.5 5.6 5.7 5.8 5.9 6.0 6.2 6.3 6.5 6.7 6.9 7.1 7.0 7.0 7.0 7.0 7.0 7.0 7.1 7.3 7.3 7.2 7.0 7.0 6.9 7.0 7.0 6.8 6.7 6.7 6.5 6.6 6.8
4.4 4.4 4.6 4.6 4.8 5.0 5.1 5.4 5.5 5.7 5.8 5.9 5.9 6.1 6.3 6.4 6.6 6.7 6.8 7.0 7.1 7.0 7.0 7.0 6.9 6.9 6.9 7.0 7.0 6.9 6.9 6.8 6.8 6.6 6.7 6.5 6.3 6.3 6.2 6.2 6.1 6.4 6.6
4.8 5.0 5.2 5.3 5.3 5.4 5.5 5.6 5.8 5.9 6.0 6.2 6.4 6.6 6.8 6.8 6.8 6.9 7.1 7.1 7.2 7.0 6.9 6.9 6.9 6.9 7.0 7.1 7.0 6.8 6.7 6.6 6.5 6.3 6.1 6.0 5.8 5.6 5.6 5.6 5.7 6.2 6.4
5.5 5.6 5.6 5.8 5.9 6.0 6.1 6.1 6.3 6.5 6.6 6.7 6.7 6.7 6.7 6.8 6.9 7.1 7.2 7.2 7.1 7.0 6.9 7.0 7.0 7.1 7.0 6.9 6.7 6.5 6.3 6.1 5.9 6.0 5.6 5.3 5.2 5.2 5.4 5.3 5.8 6.1 6.2
5.9 5.9 6.0 6.1 6.2 6.2 6.3 6.5 6.7 6.7 6.7 6.7 6.8 6.9 6.9 7.0 7.2 7.1 7.1 7.0 7.1 7.1 7.1 7.1 7.0 7.0 6.7 6.4 6.1 5.9 5.8 5.7 5.6 5.4 5.0 4.7 4.8 4.9 5.2 5.7 6.0 6.0 6.0
6.1 6.2 6.5 6.8 6.9 6.9 6.9 6.8 6.8 6.8 6.9 7.1 7.2 7.3 7.3 7.2 7.1 7.0 7.1 7.1 7.2 7.2 7.1 7.1 7.0 6.6 6.1 5.7 5.6 5.7 5.5 5.2 5.1 4.9 4.5 4.5 4.6 5.1 5.6 5.8 5.9 5.8 5.8
6.9 6.9 6.9 6.9 6.9 6.9 6.8 6.9 7.0 7.2 7.5 7.5 7.4 7.3 7.2 7.1 7.1 7.2 7.2 7.3 7.2 7.2 7.1 7.0 6.5 5.9 5.6 5.6 5.7 5.5 5.5 5.0 4.6 4.5 4.6 4.9 5.3 5.5 5.8 5.8 5.8 5.7 5.8
7.0 7.1 7.0 6.9 6.8 6.9 7.1 7.4 7.5 7.5 7.5 7.4 7.3 7.2 7.3 7.3 7.3 7.3 7.2 7.2 7.1 7.1 6.8 6.2 5.8 5.8 5.8 5.6 5.8 5.7 5.5 5.1 5.2 5.1 5.6 5.7 5.6 5.8 5.8 5.7 5.7 5.7 5.5
6.8 6.7 6.8 7.0 7.3 7.4 7.6 7.6 7.6 7.6 7.4 7.2 7.1 7.1 7.1 7.2 7.2 7.3 7.2 7.1 7.0 6.7 6.1 5.9 6.0 6.0 6.0 5.9 6.0 5.8 5.6 5.7 5.7 5.8 5.9 5.9 5.8 5.7 5.8 5.8 5.7 5.6 5.5
6.7 7.1 7.3 7.5 7.6 7.6 7.4 7.3 7.2 7.1 7.0 7.0 6.9 6.8 7.0 7.2 7.3 7.3 7.3 7.2 6.8 6.4 6.2 6.2 6.0 6.2 6.2 6.1 6.0 5.9 6.0 6.1 6.2 6.2 6.0 5.9 5.8 5.8 5.8 5.7 5.6 5.5 5.4
Wind_Speed
11 10 11 10 11 11 11 11 11 14 15 13 15 14 13 12 14 11 7 9 7 6 6 5 5 7 4 3 3 2 3 3 2 3 2 4 4 9 15 15 17 18 19
11 11 11 11 11 12 11 11 15 12 16 15 15 12 11 12 13 8 9 7 7 7 6 6 5 4 4 4 3 4 3 3 2 5 2 2 3 10 14 15 15 17 19
11 12 11 12 13 13 12 12 12 11 12 14 14 11 11 10 10 10 8 7 6 6 6 6 6 6 5 3 4 4 3 3 3 3 4 1 3 8 9 13 14 18 17
12 12 13 14 14 13 12 12 13 13 11 10 12 10 11 12 12 11 8 6 6 6 8 7 6 6 6 6 4 5 4 3 3 3 4 5 4 5 5 7 11 11 12
14 14 14 13 13 11 12 12 11 10 10 12 8 8 11 11 10 9 9 7 7 6 6 8 10 10 10 9 4 4 4 3 3 3 5 5 6 6 6 6 9 10 11
15 15 12 12 12 12 11 11 10 10 7 8 8 8 9 5 16 19 13 7 7 6 6 6 9 11 11 12 13 13 12 4 4 3 5 7 9 6 6 7 8 8 9
14 12 12 13 13 11 11 11 11 10 9 8 7 7 8 7 18 19 19 8 6 6 6 5 5 8 12 10 12 14 14 15 15 5 8 7 8 7 8 8 8 9 10
13 12 12 12 11 10 11 11 9 9 9 8 7 7 7 7 18 20 19 9 5 6 7 7 5 5 11 8 5 6 6 9 11 12 9 9 11 13 8 9 8 7 10
14 13 13 13 12 12 11 10 8 7 6 6 6 8 8 7 20 20 16 6 7 8 9 11 10 7 14 16 7 6 7 8 15 19 21 21 16 15 16 10 3 2 7
14 14 15 14 14 13 12 11 7 7 8 6 7 9 10 9 18 21 18 4 6 6 6 9 17 14 15 16 8 5 7 8 6 5 6 6 8 10 14 10 3 3 5
11 11 12 12 12 11 11 8 9 9 7 8 8 7 9 10 10 21 22 5 7 5 6 6 6 16 19 20 20 7 9 9 9 4 2 2 6 9 8 9 9 6 6
10 11 10 10 7 8 11 9 9 9 9 8 8 7 6 6 14 20 22 23 14 6 7 5 6 15 17 18 17 18 21 19 3 2 2 3 3 3 4 8 9 12 14
9 10 10 10 10 11 12 12 8 9 8 8 7 7 6 5 5 17 18 22 23 12 6 10 15 15 17 17 21 21 15 3 4 3 3 3 2 4 7 8 10 13 14
8 8 8 9 8 8 6 7 7 7 7 6 6 7 3 2 4 4 5 5 11 11 12 7 8 13 13 11 4 8 4 3 4 4 3 2 3 2 2 4 4 5 6
7 6 7 5 7 6 4 5 5 2 6 5 4 3 3 3 4 9 6 3 3 7 4 1 0 2 5 5 6 6 7 5 5 4 3 3 3 2 3 1 4 2 4
6 4 4 5 4 5 5 3 4 5 8 6 7 6 2 5 5 7 10 12 13 13 3 3 4 5 6 5 5 5 3 6 5 4 3 3 3 3 3 1 4 3 5
5 4 3 4 4 5 3 5 5 3 6 6 6 7 9 6 7 7 4 3 7 4 2 5 3 4 4 3 3 2 6 3 3 3 4 4 2 2 2 2 4 4 5
5 5 3 3 3 3 4 4 3 4 4 2 7 8 10 9 6 5 5 9 3 5 2 1 0 1 2 2 4 3 2 3 3 3 3 3 2 2 2 3 4 3 4
4 3 3 3 3 4 3 3 3 3 3 3 2 6 5 7 8 9 10 3 2 1 1 1 1 2 2 3 3 3 2 2 2 2 2 3 3 2 3 4 4 6 7
5 7 5 4 3 4 3 4 4 4 4 3 3 2 1 3 2 2 2 2 2 1 1 1 3 2 3 3 3 2 2 2 2 2 3 3 3 3 4 4 3 4 3
4 4 6 4 4 3 3 4 4 4 4 3 3 1 4 2 3 2 1 0 1 2 2 3 3 3 3 3 3 2 2 3 3 3 3 3 3 3 4 4 3 3 4
4 4 4 4 3 4 4 3 3 3 3 3 2 1 6 2 2 2 1 2 3 5 8 5 3 4 6 4 4 3 3 4 3 4 5 3 3 3 3 3 3 2 3
4 5 4 3 3 4 4 3 3 3 3 3 2 2 1 1 1 2 3 3 5 8 10 8 8 8 12 11 10 11 3 4 7 7 4 4 4 3 3 3 3 3 3
4 4 4 3 3 3 2 2 2 3 2 2 1 0 1 2 3 3 3 4 8 10 10 10 10 11 12 14 14 14 15 17 15 13 12 5 5 4 3 3 3 4 4
4 4 4 3 3 2 2 2 2 1 1 1 2 2 2 2 3 3 3 8 9 9 12 12 12 13 13 14 15 16 15 16 17 15 14 10 6 5 3 3 3 3 4
3 3 3 2 2 2 1 0 1 1 2 2 3 3 3 3 4 4 3 5 4 8 12 14 14 14 15 16 17 17 17 17 17 17 17 12 4 4 3 5 5 4 6
Wind_Direction
173 165 161 164 162 160 167 165 165 159 159 161 161 156 154 149 147 141 140 142 142 153 159 154 153 158 157 158 153 170 170 163 216 287 264 287 310 315 319 315 312 308 308
171 167 167 164 162 166 170 170 166 165 167 166 162 160 158 154 156 155 154 161 161 167 170 156 167 165 167 174 182 195 195 186 193 275 280 299 254 320 303 304 307 304 308
165 169 168 171 171 174 172 169 170 167 170 168 166 167 164 162 165 166 162 163 174 174 169 168 181 176 183 190 200 201 200 215 213 244 290 312 286 316 316 308 306 309 312
173 173 175 178 179 177 170 170 170 172 173 176 178 168 165 165 169 165 165 170 177 182 175 179 191 188 193 199 203 207 202 217 222 241 268 284 288 305 285 307 316 317 319
177 182 187 177 174 168 168 172 169 171 177 178 169 167 162 168 173 169 175 177 183 180 183 199 206 209 215 212 192 206 207 211 211 237 268 282 286 299 304 309 303 308 315
184 188 175 168 167 170 168 166 165 167 160 162 177 176 174 181 187 190 180 183 189 184 193 210 213 218 229 235 240 238 214 191 216 201 259 266 283 291 301 304 303 321 317
182 175 169 168 169 167 161 162 170 171 160 173 176 181 193 188 195 198 200 191 188 192 200 204 211 215 227 234 248 250 254 258 253 234 259 264 283 284 292 299 311 306 294
178 170 166 163 164 156 160 171 165 162 172 177 181 194 195 207 203 206 206 182 193 203 205 211 212 217 226 225 226 233 244 244 253 260 262 266 260 270 282 311 310 305 297
177 169 163 162 160 163 168 165 159 155 175 177 180 189 201 212 209 214 208 170 203 216 213 215 217 226 240 249 237 227 239 241 247 259 264 266 277 300 309 309 307 335 305
171 166 166 167 166 169 166 160 158 175 190 170 191 201 211 212 210 215 214 176 210 219 219 223 223 233 246 250 248 215 251 254 234 242 247 272 288 288 294 283 258 249 279
159 151 154 161 160 159 152 161 166 178 171 186 203 207 207 207 210 217 220 197 217 217 225 232 225 242 253 253 251 225 232 253 248 225 189 254 262 252 252 257 259 273 282
137 143 149 148 140 149 165 168 177 182 187 196 205 212 214 204 211 227 228 232 217 213 229 231 213 241 254 259 258 256 263 271 124 153 201 237 238 244 246 259 268 278 278
149 158 160 158 170 179 185 186 179 184 193 203 203 217 221 198 210 231 236 240 243 241 216 225 236 246 255 260 262 267 277 155 174 203 248 255 228 262 281 287 286 283 284
153 153 158 169 165 165 172 171 177 183 193 193 198 216 194 152 192 209 233 246 257 255 266 284 266 260 251 255 264 269 278 198 210 222 228 224 248 237 230 263 286 303 303
127 132 142 145 157 149 128 164 176 181 185 187 199 159 161 211 221 217 211 207 211 243 252 45 322 246 264 262 259 252 253 221 220 220 223 229 235 231 258 260 290 291 279
120 133 151 150 145 148 147 99 139 155 182 166 155 171 206 199 191 213 228 235 229 225 198 219 240 245 252 260 261 262 222 235 239 225 218 219 223 225 261 261 282 267 283
125 127 118 120 141 149 145 160 143 47 134 171 185 174 177 167 203 215 234 256 10 4 3 35 29 11 351 325 304 285 274 239 233 217 223 220 191 197 215 250 276 281 287
90 95 117 121 126 127 137 141 136 146 141 79 68 96 86 97 86 58 29 55 28 38 65 72 288 285 281 296 295 276 249 245 231 221 223 210 210 211 225 239 262 242 273
94 96 108 106 102 113 115 111 115 122 127 130 68 80 28 85 86 66 65 90 113 67 19 1 285 301 290 280 278 271 268 262 251 232 229 220 218 199 237 243 255 269 278
70 91 87 101 101 100 103 114 110 111 114 122 115 116 79 55 53 46 60 95 100 155 213 243 285 275 272 266 265 258 262 261 254 240 242 233 229 222 241 242 233 258 253
83 76 92 84 89 101 107 113 116 119 124 107 99 117 150 111 118 108 81 93 172 230 252 236 260 255 255 259 250 247 239 256 239 245 240 237 216 231 232 250 252 237 263
72 74 70 90 91 84 86 92 97 101 105 120 123 60 96 97 124 166 220 257 247 241 252 240 250 248 262 254 250 237 241 248 243 250 249 233 228 235 241 245 245 241 260
69 74 64 54 68 86 77 72 103 116 130 128 126 113 68 127 192 222 237 248 254 264 277 261 260 277 290 289 280 257 235 236 240 246 242 240 241 236 223 238 221 239 233
72 75 81 70 58 65 80 81 80 88 98 108 99 240 238 233 236 252 254 263 270 277 283 282 279 275 283 289 288 280 268 268 266 255 248 247 251 238 228 225 222 228 251
80 87 85 87 83 86 83 76 87 92 113 187 225 236 245 258 266 260 258 265 271 278 287 289 286 285 285 283 283 282 278 271 268 262 250 235 241 223 217 218 219 232 244
67 75 83 91 99 111 116 152 253 248 248 251 243 240 244 249 251 251 258 269 269 277 281 284 285 285 284 284 283 283 283 277 265 259 244 228 223 227 205 229 231 234 247